Location: Bush Observatory
(40.2653°N, 94.3194°W)
Time: 03:25:12
(UTC-05:00)

Daily predictions for brighter satellites

Satellite Brightness Start Highest point End
(mag) Time Altitude Azimuth Time Altitude Azimuth Time Altitude Azimuth
Cosmos 2369 Rocket 3.3 00:12:49 32° ENE 00:12:49 32° ENE 00:16:29 10° NE
BREEZE-M TANK 3.5 00:17:52 10° WNW 00:23:06 47° NW 00:23:06 47° NW
CZ-2C R/B 4.3 00:26:40 10° NE 00:29:23 21° ENE 00:29:23 21° ENE
Cosmos 1503 Rocket 4.4 00:27:42 10° NNW 00:32:17 59° NNE 00:32:17 59° NNE
CZ-4B R/B 4.4 00:38:36 14° N 00:38:36 14° N 00:39:08 10° N
ISS 0.0 00:37:54 12° NNE 00:37:54 12° NNE 00:38:26 10° NNE
Terra 4.2 00:43:30 13° W 00:43:30 13° W 00:45:33 10° WNW
Iridium 4 Rocket 4.1 00:37:46 10° N 00:43:31 58° W 00:43:33 58° W
USA 229 4.5 00:37:15 10° NW 00:43:41 38° WSW 00:43:46 38° WSW
Meteor 2-15 Rocket 4.3 00:37:36 10° N 00:43:39 85° NE 00:43:39 85° NE
Meteor 2-14 Rocket 4.5 00:47:32 69° W 00:47:40 69° W 00:53:48 10° N
Cosmos 1833 Rocket 4.3 00:44:11 10° NW 00:47:59 22° W 00:47:59 22° W
Lacrosse 5 rocket 3.8 00:53:23 15° NNE 00:53:23 15° NNE 00:54:09 10° NE
Meteor 2-15 4.5 00:45:50 10° NNW 00:51:47 69° W 00:51:47 69° W
Cosmos 1943 Rocket 3.5 00:56:26 30° ENE 00:56:26 30° ENE 00:59:52 10° NE
Lacrosse 5 2.6 01:01:49 51° NNE 01:01:49 51° NNE 01:05:47 10° NE
NOSS 3-1 (A) 3.9 00:54:46 10° NW 01:02:27 90° ENE 01:03:41 68° SSE
Meteor 2-4 Rocket 4.2 00:58:23 10° NNW 01:02:57 50° WNW 01:02:57 50° WNW
Cosmos 2082 Rocket 4.5 01:03:07 10° WNW 01:04:56 12° W 01:04:56 12° W
Cosmos 1459 Rocket 4.4 01:07:10 49° ENE 01:07:10 49° ENE 01:12:37 10° NNE
H-2A R/B 3.8 01:02:29 10° N 01:05:38 43° N 01:05:38 43° N
Cosmos 1605 Rocket 4.1 01:07:19 65° W 01:07:30 66° W 01:13:53 10° N
Cosmos 2285 Rocket 4.2 01:09:04 60° W 01:09:30 62° WNW 01:15:51 10° NNE
Cosmos 2263 4.4 01:14:25 66° NNE 01:14:25 66° NNE 01:19:16 10° NNE
ATLAS 2AS CENTAUR R/B 3.5 01:15:54 10° NNW 01:23:52 55° NE 01:27:02 35° ESE
ALOS 2 4.5 01:26:47 25° NW 01:26:47 25° NW 01:28:59 10° NNW
Cosmos 2173 Rocket 4.1 01:25:22 69° E 01:25:22 69° E 01:31:28 10° NNE
NOSS 3-1 (C) 4.3 01:26:14 10° NW 01:33:31 50° WSW 01:33:31 50° WSW
Cosmos 1833 4.4 01:30:12 10° NNW 01:35:20 66° NNE 01:35:20 66° NNE
Cosmos 2369 Rocket 3.5 01:54:35 29° WNW 01:55:22 30° WNW 02:00:17 10° N
Cosmos 2219 3.5 01:58:27 10° NNW 02:04:02 60° ENE 02:04:08 60° ENE
Cosmos 1066 Rocket 4.4 02:00:48 10° NNW 02:05:15 60° NW 02:05:15 60° NW
Cosmos 2227 Rocket 4.4 02:05:07 10° N 02:09:16 20° NE 02:13:23 10° E
CZ-2C R/B 3.7 02:10:56 44° NW 02:10:56 44° NW 02:14:32 10° NNW
CZ-2C R/B 3.4 02:06:21 10° N 02:10:54 40° WNW 02:10:54 40° WNW
ISS 0.2 02:12:39 10° NNW 02:13:52 12° N 02:15:06 10° NNE
SL-08 R/B 4.4 02:17:48 75° WSW 02:18:02 76° W 02:24:28 10° N
Cosmos 2058 Rocket 4.0 02:26:23 47° NNE 02:26:23 47° NNE 02:29:39 10° NNE
SeaSat 1 2.7 02:27:10 66° NNW 02:27:10 66° NNW 02:31:25 10° NNW
Lacrosse 5 rocket 4.1 02:29:18 10° NW 02:30:26 11° NNW 02:31:34 10° N
Cosmos 2297 Rocket 4.4 02:26:47 10° N 02:31:02 21° NE 02:35:15 10° ESE
Cosmos 1570 Rocket 4.1 02:32:53 70° ENE 02:32:53 70° ENE 02:37:52 10° NNE
Cosmos 1656 Rocket 3.7 02:33:23 71° WNW 02:33:23 71° WNW 02:38:58 10° NNE
Cosmos 1943 Rocket 3.3 02:37:57 31° WNW 02:38:33 31° WNW 02:43:31 10° N
NPP 4.1 02:37:59 10° NNE 02:43:12 49° E 02:43:33 48° ESE
Lacrosse 5 4.2 02:40:58 10° WNW 02:44:30 19° NNW 02:48:05 10° NNE
Resurs 1-4 Rocket 4.5 02:42:41 10° ENE 02:45:01 13° E 02:47:20 10° ESE
Cosmos 2233 Rocket 3.8 02:48:05 74° SSW 02:48:41 88° W 02:54:51 10° N
Cosmos 2098 Rocket 4.3 02:50:34 53° WSW 02:51:29 57° WNW 02:58:50 10° N
NOSS 3-3 (A) 4.0 02:51:45 59° WSW 02:52:48 70° NW 02:59:31 10° NNE
NOSS 3-3 (C) 4.0 02:51:51 60° WSW 02:52:54 71° NW 02:59:37 10° NNE
Geosat 4.5 02:48:33 10° NE 02:53:26 49° ESE 02:53:26 49° ESE
CZ-3B DEB 4.5 02:25:37 10° NW 02:54:55 51° WSW 02:59:56 39° SSW
ARIANE 5 R/B 4.2 02:59:12 10° NE 03:03:25 25° E 03:05:07 21° SE
BREEZE-M DEB (TANK) 3.7 03:04:08 65° SSW 03:04:47 73° SSE 03:08:12 10° ENE
ERS-2 3.4 03:05:39 10° NNE 03:08:37 36° ENE 03:08:37 36° ENE
Uosat 12 SS-18 rocket 4.3 03:09:03 10° NNW 03:13:47 86° ENE 03:14:55 56° SE
ATLAS 2AS CENTAUR R/B 3.6 03:07:29 10° NW 03:14:24 36° WSW 03:14:24 36° WSW
ATLAS CENTAUR R/B 2.9 03:14:20 33° SE 03:14:48 34° ESE 03:19:19 10° NE
Cosmos 2208 Rocket 4.4 03:15:32 48° WNW 03:15:50 49° WNW 03:20:56 10° N
AQUA 3.7 03:12:01 10° NNE 03:16:48 83° ESE 03:17:03 79° SSE
Cosmos 1707 3.9 03:14:40 10° N 03:18:23 38° ENE 03:18:54 36° E
Cosmos 1072 Rocket 4.5 03:19:24 49° S 03:21:18 85° E 03:27:44 10° N
Cosmos 2298 Rocket 4.2 03:21:57 10° NNW 03:27:15 72° ENE 03:29:35 34° SSE
CBERS-1 3.9 03:23:04 10° N 03:28:13 77° WNW 03:28:58 63° SW
Cosmos 1814 Rocket 4.4 03:29:43 43° SSE 03:31:06 57° ESE 03:36:21 10° NNE
BREEZE-M DEB (TANK) 4.0 03:31:13 33° WNW 03:32:17 41° NNW 03:35:40 10° NE
USA 161 3.2 03:34:18 34° NE 03:34:18 34° NE 03:36:22 10° N
Cosmos 2228 4.5 03:39:25 25° WNW 03:39:25 25° WNW 03:42:33 10° NNW
CZ-2D R/B 3.1 03:34:01 10° NNE 03:39:11 42° E 03:41:59 24° SSE
Cosmos 220 Rocket 3.9 03:35:56 10° NNW 03:40:18 82° ENE 03:41:09 57° SSE
Okean O Rocket 4.2 03:38:41 10° ENE 03:40:52 14° E 03:43:04 10° ESE
IRS-1C 4.1 03:35:33 10° N 03:40:53 74° WNW 03:42:12 51° SW
Cosmos 2082 3.6 03:36:17 10° NNW 03:41:57 84° WSW 03:44:49 30° SSE
Cosmos 1697 Rocket 3.5 03:39:36 28° SSE 03:42:00 42° ESE 03:47:19 10° NE
SL-08 R/B 3.7 03:42:26 45° W 03:42:26 45° W 03:46:43 10° NNW
Cosmos 2034 Rocket 3.9 03:41:26 38° S 03:44:00 86° E 03:50:15 10° N
SL-16 R/B 2.9 03:38:42 12° SSE 03:44:24 63° ENE 03:50:30 10° N
Meteor 2-5 Rocket 3.7 03:38:45 10° NNW 03:44:38 80° W 03:47:09 37° S
BREEZE-M DEB (TANK) 3.3 03:46:06 27° NNW 03:46:45 30° N 03:49:39 10° ENE
Cosmos 1980 Rocket 3.7 03:46:18 17° SSE 03:49:39 29° ESE 03:54:28 10° NE
ISS -0.9 03:48:27 10° NNW 03:51:12 24° NNE 03:53:57 10° E
Cosmos 44 4.5 03:48:47 10° NW 03:51:59 28° W 03:51:59 28° W
Cosmos 2227 Rocket 2.1 03:48:12 10° NNW 03:53:48 64° WSW 03:56:12 34° S
Cosmos 858 Rocket 4.4 03:50:34 10° NNW 03:55:49 80° WSW 03:58:38 28° S
Nadezhda 4 Rocket 4.1 03:52:13 10° N 03:58:25 75° E 04:03:41 15° SSE
Cosmos 468 Rocket 4.0 03:56:58 45° SW 03:58:31 69° WNW 04:03:40 10° NNE
Cosmos 990 Rocket 4.4 03:54:15 10° NNW 03:59:29 63° ENE 04:04:41 10° SSE
Cosmos 1408 Rocket 4.2 04:00:19 10° N 04:04:38 53° E 04:08:12 15° SSE
Cosmos-2242 4.4 04:02:53 16° SSE 04:05:52 35° E 04:09:48 10° NNE
Cosmos 2150 Rocket 4.0 04:00:46 10° NNW 04:05:54 58° WSW 04:08:00 34° SSW
Cosmos 1766 Rocket 4.3 04:01:58 10° N 04:06:16 51° E 04:10:12 12° SSE
GEOS 3 Rocket 3.6 04:02:26 10° SE 04:07:40 88° NE 04:12:52 10° NW
NOSS 7 (E) 4.5 04:08:39 57° S 04:09:10 69° ESE 04:12:35 10° NE
Cosmos 2278 4.4 04:07:06 30° WSW 04:09:12 41° WNW 04:14:35 10° N
NOSS 2-1 (D) 3.8 04:08:18 41° W 04:09:14 51° NW 04:13:35 10° NNE
Cosmos 2369 4.2 04:07:54 32° WSW 04:10:02 46° WNW 04:15:30 10° NNE
NOSS 2-1 (C) 3.8 04:09:37 40° W 04:10:36 51° NW 04:14:57 10° NNE
BREEZE-M R/B 4.2 04:06:47 10° WNW 04:12:52 60° SW 04:19:46 10° SE
Cosmos 405 Rocket 3.6 04:10:08 10° NNW 04:13:48 34° W 04:13:48 34° W
Cosmos 1766 3.2 04:13:38 41° S 04:14:57 87° W 04:18:55 10° N
UNK 3.7 04:12:06 24° S 04:14:59 81° WSW 04:19:42 10° NNW
Cosmos 2297 Rocket 2.2 04:09:56 10° NNW 04:15:29 59° WSW 04:19:51 16° S
Milstar 3 Cent rocket 3.3 04:16:48 25° S 04:18:10 27° SSE 04:24:35 10° ESE
Cosmos 1898 Rocket 3.9 04:14:32 10° NNW 04:19:35 43° WSW 04:21:41 29° SSW
Resurs 1-4 Rocket 2.1 04:20:07 10° N 04:25:24 74° WNW 04:28:28 25° SSW
NOSS 2-1 (E) 4.2 04:24:14 28° W 04:25:46 40° NW 04:30:06 10° NNE
UNKNOWN OBJECT B 2.7 04:24:11 10° NNE 04:28:08 87° ESE 04:30:05 28° S
Cosmos 1758 3.7 04:27:24 19° S 04:30:10 63° E 04:34:09 10° NNE
Cosmos 841 Rocket 3.5 04:28:20 25° SSW 04:31:28 83° WNW 04:36:47 10° NNE
SL-16 R/B 4.2 04:27:43 10° SSE 04:32:08 24° ESE 04:36:34 10° NE
Cosmos 1634 Rocket 4.1 04:26:35 13° S 04:32:11 79° E 04:38:30 10° N
CZ-3 R/B 4.2 04:14:41 21° SW 04:32:59 38° S 04:41:59 10° ESE
Cosmos 1378 3.1 04:29:20 10° NNW 04:33:06 62° W 04:35:03 26° SSW
Cosmos 1937 Rocket 3.8 04:29:10 10° NNW 04:34:04 44° WSW 04:37:33 18° SSW
Meteor 1-24 Rocket 4.0 04:29:11 10° NNW 04:34:42 52° W 04:39:07 17° SSW
CZ-2C R/B 4.5 04:30:21 10° SSE 04:34:56 55° ENE 04:39:29 10° N
Cosmos 1953 2.4 04:33:28 20° S 04:36:11 78° E 04:40:16 10° N
MTI 3.7 04:34:48 20° S 04:36:56 82° W 04:40:14 10° NNW
MOS 1-B 4.3 04:31:32 10° N 04:37:22 77° WNW 04:41:46 18° SSW
NOSS 3-4 (A) 3.8 04:30:47 10° NW 04:37:45 67° WSW 04:45:07 10° SSE
NOSS 3-4 (C) 3.8 04:30:53 10° NW 04:37:53 68° WSW 04:45:17 10° SSE
Cosmos 1763 Rocket 3.6 04:36:11 24° SW 04:39:16 62° WNW 04:44:26 10° NNE
EO 1 Del DPAF 3.5 04:37:50 25° SSW 04:39:43 47° W 04:43:29 10° NNW
ARIANE 5 R/B 3.2 04:37:53 10° N 04:42:36 38° WNW 04:45:27 21° WSW
ERS-2 4.2 04:40:36 10° NNW 04:42:37 14° WNW 04:43:28 13° W
Cosmos 1092 Rocket 4.0 04:40:16 10° NNW 04:46:27 63° W 04:52:40 10° S
CZ-3A R/B 3.7 04:36:24 17° WSW 04:46:34 64° NW 04:51:09 10° NE
Cosmos 1437 3.3 04:44:18 10° N 04:47:37 61° E 04:50:54 10° SSE
Cosmos 1805 3.2 04:45:52 18° S 04:48:45 82° W 04:52:40 10° N
CZ-2D R/B 3.5 04:44:50 10° N 04:49:09 74° WNW 04:52:35 16° SSW
Abrixas 4.3 04:46:33 10° NW 04:49:24 33° NNE 04:52:14 10° E
Cosmos 1441 Rocket 3.6 04:47:36 10° NNW 04:51:25 45° W 04:54:23 16° SSW
CZ-4B R/B 3.6 04:47:09 10° NNE 04:52:40 65° ESE 04:58:03 10° S
ATLAS CENTAUR R/B 2.9 04:50:41 17° WSW 04:53:54 34° NW 04:58:28 10° NNE
GPS 2-04 Rocket1 3.1 04:53:37 22° WSW 04:55:46 42° S 04:59:21 10° ESE
Thor Agena Rocket 3.9 04:54:18 10° SSE 04:59:17 67° ENE 05:04:18 10° N
Cosmos 2227 4.3 04:55:09 10° NNW 05:00:57 84° ENE 05:06:43 10° SSE
MOZ.5/SAFIR/RUBIN 5/SL-8 3.8 04:57:55 10° SSE 05:02:39 87° W 05:07:22 10° NNW
Cosmos 1461 4.3 05:00:08 10° NNW 05:04:05 42° NE 05:07:52 10° SE
Aureole 1 Rocket 4.5 04:59:12 10° S 05:04:39 62° ESE 05:11:50 10° NNE
RESURS DK-1 3.7 05:03:20 10° NNW 05:07:19 45° ENE 05:11:17 10° SE
Meteor 1-21 Rocket 4.3 05:02:24 10° NNW 05:08:17 71° W 05:14:10 10° S
Cosmos 540 Rocket 3.5 05:07:05 10° SSW 05:12:15 88° ESE 05:17:28 10° NNE
ASTRO E2 4.4 05:13:08 14° SW 05:14:42 16° SSW 05:17:18 10° SSE
Cosmos 1500 Rocket 3.5 05:10:31 10° N 05:14:56 79° W 05:19:17 10° S
Okean O Rocket 1.9 05:13:16 10° N 05:17:33 52° WNW 05:21:49 10° SSW
CZ-2D R/B 3.4 05:14:33 10° N 05:19:00 26° WNW 05:23:19 10° WSW
Cosmos 1743 Rocket 3.8 05:15:08 10° NNW 05:19:18 46° W 05:23:27 10° SSW
Cosmos 332 Rocket 3.8 05:15:28 10° SSW 05:20:15 84° WNW 05:25:08 10° NNE
Cosmos 2151 3.7 05:18:13 10° N 05:22:29 57° E 05:26:43 10° SSE
Cosmos 1697 Rocket 3.9 05:21:22 10° WSW 05:26:06 28° NW 05:30:57 10° N
ISS -3.1 05:24:37 10° WNW 05:27:46 46° SW 05:30:54 10° SSE
SL-16 R/B 3.8 05:24:09 10° SW 05:28:28 20° W 05:32:48 10° NW
Cosmos 2279 Rocket 4.1 05:22:33 10° SSW 05:28:45 65° W 05:35:00 10° N
CZ-4B DEB 4.3 05:24:08 10° N 05:29:39 67° WNW 05:35:06 10° SSW
Cosmos 1544 3.7 05:28:00 10° SSW 05:31:26 37° WNW 05:34:52 10° N
USA 81 4.5 05:27:50 10° SSW 05:32:51 45° W 05:37:56 10° N
CZ-4B R/B 3.1 05:29:24 10° N 05:33:16 49° WNW 05:36:55 10° SSW
Cosmos 1980 Rocket 2.9 05:28:15 10° SW 05:33:28 38° WNW 05:38:45 10° N
Cosmos 2360 Rocket 4.0 05:29:20 10° SSE 05:34:09 30° ESE 05:38:59 10° NE
Cosmos 1674 2.8 05:33:33 10° NNW 05:37:14 52° W 05:40:53 10° S
ADEOS II 2.6 05:33:03 10° NNE 05:38:18 65° ESE 05:43:30 10° S
Cosmos 371 Rocket 3.3 05:36:11 10° SSW 05:41:00 79° WNW 05:45:50 10° NNE
Cosmos 1655 Rocket 4.4 05:35:45 10° NNW 05:41:46 45° W 05:47:46 10° SSW
